Home > Weather > Iloilo City > Past weeks

Flag for Philippines Weather for the Past 2 Weeks in Iloilo City, Philippines

Now
82 °F

Passing clouds.


Feels Like: 88 °F
Forecast: 77 / 87 °F
Wind: 13 mph from Northeast

Location: Masbate Airport

Current Time: Feb 8, 2016 at 12:55:33 PM

Latest Report: Feb 8, 2016 at 12:00 PM


Visibility: N/A

Pressure: 29.92 "Hg

Humidity: 74%

Dew point: 73 °F

Location of Iloilo CityLocation

Historic Weather in Iloilo City — Graph

°F

Iloilo City Temperature Yesterday

Maximum temperature yesterday: 88 °F (at 2:00 PM)
Minimum temperature yesterday: 77 °F (at 2:00 AM)
Average temperature yesterday: 82 °F

High & Low Weather Summary for the Past Weeks

 TemperatureHumidityPressure
High90 °F (Feb 3, 4:00 PM)100% (Jan 27, 6:00 PM)32.52 "Hg (Jan 27, 6:00 PM)
Low73 °F (Jan 25, 11:00 PM)55% (Jan 24, 1:00 PM)29.77 "Hg (Feb 5, 2:00 PM)
Average80 °F83%29.93 "Hg
* Reported Jan 24 11:00 AM — Feb 8 11:00 AM, Iloilo City, Weather by CustomWeather, © 2016

Note: Actual official high and low records may vary slightly from our data, if they occured in-between our weather recording intervals... More about our weather records

Advertising

Iloilo City Weather History for the Previous 24 Hours

 ConditionsComfort  
Time TempWeatherWind HumidityBarometerVisibility
11:00 AM
Mon, Feb 8
81 °FPartly sunny.12 mph84%29.95 "HgN/A
10:00 AM82 °FScattered clouds.12 mph79%29.95 "HgN/A
9:00 AM81 °FPartly sunny.9 mph84%29.95 "HgN/A
8:00 AM77 °FMore clouds than sun.9 mph94%29.95 "HgN/A
7:00 AM77 °FBroken clouds.6 mph94%29.92 "HgN/A
6:00 AM77 °FSprinkles. Mostly cloudy.3 mph89%29.92 "Hg4 mi
5:00 AM79 °FPassing clouds.3 mph84%29.89 "HgN/A
4:00 AM77 °FPassing clouds.1 mph89%29.89 "HgN/A
3:00 AM75 °FPassing clouds.3 mph94%29.89 "HgN/A
2:00 AM77 °FPassing clouds.7 mph89%29.92 "HgN/A
1:00 AM77 °FOvercast.6 mph89%29.92 "HgN/A
12:00 AM77 °FSprinkles. Overcast.10 mph94%29.95 "HgN/A
11:00 PM
Sun, Feb 7
81 °FOvercast.9 mph84%29.95 "HgN/A
10:00 PM81 °FPassing clouds.10 mph79%29.92 "HgN/A
9:00 PM81 °FPassing clouds.13 mph84%29.92 "HgN/A
8:00 PM82 °FPassing clouds.15 mph84%29.92 "HgN/A
7:00 PM82 °FPassing clouds.9 mph74%29.89 "HgN/A
6:00 PM82 °FPassing clouds.9 mph70%29.86 "HgN/A
5:00 PM84 °FPassing clouds.10 mph66%29.86 "HgN/A
4:00 PM86 °FPassing clouds.12 mph62%29.83 "HgN/A
3:00 PM86 °FPassing clouds.12 mph62%29.86 "HgN/A
2:00 PM88 °FPassing clouds.13 mph62%29.86 "HgN/A
1:00 PM86 °FPassing clouds.10 mph62%29.89 "HgN/A
12:00 PM86 °FPassing clouds.10 mph70%29.92 "HgN/A
Weather by CustomWeather, © 2016

See weather overviewHow to use our weather pages